Regional Weather Roundup
Issued by NWS

Home | Current Version | Previous Version | Text Only | Print | Product List | Glossary Off
Versions: 1 2 3 4 5 6 7 8 9 10 11 12 13 14 15 16 17 18 19 20 21 22 23 24 25 26 27 28 29 30 31 32 33 34 35 36 37 38 39 40 41 42 43 44 45 46 47 48 49 50

000
ASUS44 KMEG 291600
RWRTN
TENNESSEE HOURLY STATE WEATHER ROUNDUP
NATIONAL WEATHER SERVICE MEMPHIS TN
1100 AM CDT TUE JUL 29 2014

TNZ002-004-019-021-049-052-054-088>092-291700-
WEST TENNESSEE

CITY           SKY/WX    TMP DP  RH WIND       PRES   REMARKS
MEMPHIS INTL   MOSUNNY   76  53  44 NE9       30.15S
NWS MEMPHIS      N/A     73 N/A N/A MISG        N/A
JACKSON        MOSUNNY   74  53  48 N5        30.15R
DYERSBURG      MOSUNNY   72  48  43 N8        30.16S
UNION CITY     SUNNY     72  54  53 NE7       30.15S
PARIS          SUNNY     70  52  52 N6        30.16R
LEXINGTON      SUNNY     72  52  49 N7        30.14R
SAVANNAH       SUNNY     73  55  53 NE7       30.14S
$$

TNZ008-025-027-028-033-062-065-066-291700-
NORTH MIDDLE TENNESSEE

CITY           SKY/WX    TMP DP  RH WIND       PRES   REMARKS
NASHVILLE      MOSUNNY   74  52  46 N18       30.13R
CLARKSVILLE    SUNNY     74  49  41 N14       30.13R
COOKEVILLE     SUNNY     70  54  56 NW7       30.10S
CROSSVILLE     MOSUNNY   70  52  52 NW8       30.11R
$$

TNZ061-075-076-078-094-096-097-291700-
SOUTH MIDDLE TENNESSEE

CITY           SKY/WX    TMP DP  RH WIND       PRES   REMARKS
FAYETTEVILLE   SUNNY     68  52  56 N13       30.11S
WINCHESTER     MOSUNNY   70  57  64 VRB7      30.10S
SHELBYVILLE    SUNNY     70  52  52 NE12      30.12S
$$

TNZ017-018-042-046-047-291700-
NORTHEAST TENNESSEE

CITY           SKY/WX    TMP DP  RH WIND       PRES   REMARKS
TRI CITIES     PTSUNNY   70  52  52 NW8       30.05R
ELIZABETHTON   MOSUNNY   72  52  49 VRB3        N/A
$$

TNZ012-013-036-069-073-074-291700-
CENTRAL EAST TENNESSEE

CITY           SKY/WX    TMP DP  RH WIND       PRES   REMARKS
KNOXVILLE      MOSUNNY   71  57  61 CALM      30.05R
OAK RIDGE      CLOUDY    74  56  53 CALM      30.07R
GATLINBURG     MOSUNNY   73  57  56 NW5       30.05S
$$

TNZ083-085-099-291700-
SOUTHEAST TENNESSEE

CITY           SKY/WX    TMP DP  RH WIND       PRES   REMARKS
CHATTANOOGA    MOSUNNY   76  55  48 N9        30.07R
$$

SKY/WX REPORTED AS FAIR MEANS FEW OR NO CLOUDS BELOW
12 THOUSAND FEET.



USA.gov is the U.S. government's official web portal to all federal, state and local government web resources and services.